| time (UTC) | temp C | wind direction | speed KPH | gust KPH | rain 1hr cm | rain 24hr cm | rain mn cm | humidity % | barometer mb |
| 20260901142717 | 15 | 172 | 0.0 | 1.6 | 0.00 | 0.00 | 0.00 | 78 | 1015.8 |
| 20260901142238 | 15 | 141 | 0.0 | 1.6 | 0.00 | 0.00 | 0.00 | 78 | 1015.7 |
| 20260901141718 | 15 | 122 | 0.0 | 0.0 | 0.00 | 0.00 | 0.00 | 78 | 1015.7 |
| 20260901141218 | 15 | 150 | 0.0 | 1.6 | 0.00 | 0.00 | 0.00 | 79 | 1015.6 |
| 20260901140719 | 15 | 287 | 0.0 | 1.6 | 0.00 | 0.00 | 0.00 | 79 | 1015.6 |
| 20260901140218 | 15 | 186 | 0.0 | 1.6 | 0.00 | 0.00 | 0.00 | 79 | 1015.5 |
| 20260901135718 | 15 | 0.0 | 0.0 | 0.00 | 0.00 | 0.00 | 79 | 1015.4 | |
| 20260901135218 | 15 | 159 | 0.0 | 1.6 | 0.00 | 0.00 | 0.00 | 79 | 1015.4 |
| 20260901134719 | 15 | 203 | 0.0 | 1.6 | 0.00 | 0.00 | 0.00 | 79 | 1015.3 |
| 20260901134238 | 15 | 101 | 0.0 | 0.0 | 0.00 | 0.00 | 0.00 | 79 | 1015.4 |
| 20260901133718 | 15 | 144 | 0.0 | 1.6 | 0.00 | 0.00 | 0.00 | 79 | 1015.4 |
| 20260901133218 | 15 | 0.0 | 0.0 | 0.00 | 0.00 | 0.00 | 79 | 1015.4 | |
| 20260901132718 | 15 | 0.0 | 0.0 | 0.00 | 0.00 | 0.00 | 78 | 1015.3 | |
| 20260901132218 | 15 | 143 | 0.0 | 1.6 | 0.00 | 0.00 | 0.00 | 77 | 1015.3 |
| 20260901131739 | 15 | 103 | 0.0 | 0.0 | 0.00 | 0.00 | 0.00 | 77 | 1015.3 |
| 20260901131236 | 15 | 0.0 | 0.0 | 0.00 | 0.00 | 0.00 | 76 | 1015.2 | |
| 20260901130737 | 15 | 0.0 | 0.0 | 0.00 | 0.00 | 0.00 | 76 | 1015.2 | |
| 20260901130219 | 15 | 0.0 | 0.0 | 0.00 | 0.00 | 0.00 | 76 | 1015.1 | |
| 20260901125719 | 15 | 130 | 0.0 | 1.6 | 0.00 | 0.00 | 0.00 | 76 | 1015.1 |
| 20260901125219 | 15 | 0.0 | 0.0 | 0.00 | 0.00 | 0.00 | 76 | 1015.0 | |
| 20260901124719 | 15 | 152 | 0.0 | 1.6 | 0.00 | 0.00 | 0.00 | 76 | 1015.0 |
| 20260901124301 | 15 | 103 | 0.0 | 0.0 | 0.00 | 0.00 | 0.00 | 76 | 1015.1 |
| 20260901123719 | 15 | 140 | 0.0 | 1.6 | 0.00 | 0.00 | 0.00 | 76 | 1015.1 |
| 20260901123257 | 15 | 142 | 0.0 | 1.6 | 0.00 | 0.00 | 0.00 | 76 | 1015.1 |
| 20260901122717 | 15 | 134 | 0.0 | 0.0 | 0.00 | 0.00 | 0.00 | 77 | 1015.1 |
| 20260901122217 | 15 | 0.0 | 0.0 | 0.00 | 0.00 | 0.00 | 77 | 1015.0 | |
| 20260901121717 | 15 | 0.0 | 0.0 | 0.00 | 0.00 | 0.00 | 77 | 1015.0 | |
| 20260901121237 | 15 | 98 | 0.0 | 0.0 | 0.00 | 0.00 | 0.00 | 77 | 1014.9 |
| 20260901120717 | 15 | 132 | 0.0 | 1.6 | 0.00 | 0.00 | 0.00 | 77 | 1015.0 |
| 20260901120220 | 15 | 131 | 0.0 | 0.0 | 0.00 | 0.00 | 0.00 | 76 | 1014.8 |
| 20260901115720 | 15 | 0.0 | 0.0 | 0.00 | 0.00 | 0.00 | 76 | 1014.9 | |
| 20260901115241 | 15 | 120 | 0.0 | 0.0 | 0.00 | 0.00 | 0.00 | 76 | 1014.9 |
| 20260901114719 | 15 | 102 | 0.0 | 0.0 | 0.00 | 0.00 | 0.00 | 76 | 1014.9 |
| 20260901114217 | 15 | 0.0 | 0.0 | 0.00 | 0.00 | 0.00 | 76 | 1014.9 | |
| 20260901113738 | 15 | 140 | 0.0 | 1.6 | 0.00 | 0.00 | 0.00 | 76 | 1014.9 |
| 20260901113217 | 15 | 0.0 | 0.0 | 0.00 | 0.00 | 0.00 | 76 | 1015.0 | |
| 20260901112738 | 15 | 141 | 0.0 | 1.6 | 0.00 | 0.00 | 0.00 | 76 | 1015.0 |
| 20260901112306 | 15 | 0.0 | 0.0 | 0.00 | 0.00 | 0.00 | 76 | 1015.1 | |
| 20260901111738 | 15 | 299 | 0.0 | 0.0 | 0.00 | 0.00 | 0.00 | 76 | 1015.1 |
| 20260901111238 | 15 | 96 | 0.0 | 0.0 | 0.00 | 0.00 | 0.00 | 75 | 1015.0 |
| 20260901110718 | 15 | 140 | 0.0 | 1.6 | 0.00 | 0.00 | 0.00 | 75 | 1014.9 |
| 20260901110218 | 15 | 127 | 0.0 | 1.6 | 0.00 | 0.00 | 0.00 | 75 | 1014.9 |
| 20260901105723 | 15 | 0.0 | 0.0 | 0.00 | 0.00 | 0.00 | 75 | 1014.9 | |
| 20260901105218 | 15 | 149 | 0.0 | 1.6 | 0.00 | 0.00 | 0.00 | 75 | 1014.9 |
| 20260901104718 | 16 | 0.0 | 0.0 | 0.00 | 0.00 | 0.00 | 75 | 1014.9 | |
| 20260901104240 | 15 | 0.0 | 0.0 | 0.00 | 0.00 | 0.00 | 75 | 1014.9 | |
| 20260901103719 | 15 | 0.0 | 0.0 | 0.00 | 0.00 | 0.00 | 75 | 1014.8 | |
| 20260901103218 | 15 | 0.0 | 0.0 | 0.00 | 0.00 | 0.00 | 75 | 1014.7 | |
| 20260901102518 | 15 | 168 | 0.0 | 1.6 | 0.00 | 0.00 | 0.00 | 75 | 1014.7 |
| 20260901102019 | 15 | 134 | 0.0 | 1.6 | 0.00 | 0.00 | 0.00 | 76 | 1014.7 |
| 20260901101516 | 15 | 0.0 | 0.0 | 0.00 | 0.00 | 0.00 | 78 | 1014.7 | |
| 20260901101016 | 15 | 0.0 | 0.0 | 0.00 | 0.00 | 0.00 | 80 | 1014.8 | |
| 20260901100519 | 15 | 153 | 0.0 | 1.6 | 0.00 | 0.00 | 0.00 | 82 | 1014.8 |
| 20260901100044 | 15 | 154 | 0.0 | 1.6 | 0.00 | 0.00 | 0.00 | 82 | 1014.8 |
| 20260901095519 | 15 | 138 | 0.0 | 1.6 | 0.00 | 0.00 | 0.00 | 83 | 1014.8 |
| 20260901095019 | 16 | 0.0 | 0.0 | 0.00 | 0.00 | 0.00 | 84 | 1014.8 | |
| 20260901094519 | 16 | 214 | 0.0 | 1.6 | 0.00 | 0.00 | 0.00 | 84 | 1014.7 |
| 20260901094019 | 16 | 241 | 0.0 | 1.6 | 0.00 | 0.00 | 0.00 | 84 | 1014.7 |
| 20260901093516 | 16 | 164 | 0.0 | 1.6 | 0.00 | 0.00 | 0.00 | 84 | 1014.7 |
| 20260901093016 | 16 | 248 | 0.0 | 1.6 | 0.00 | 0.00 | 0.00 | 83 | 1014.6 |
| 20260901092538 | 16 | 162 | 0.0 | 1.6 | 0.00 | 0.00 | 0.00 | 84 | 1014.6 |
| 20260901092017 | 16 | 345 | 0.0 | 0.0 | 0.00 | 0.00 | 0.00 | 85 | 1014.6 |
| 20260901091517 | 16 | 132 | 0.0 | 1.6 | 0.00 | 0.00 | 0.00 | 85 | 1014.7 |
| 20260901091017 | 16 | 229 | 0.0 | 1.6 | 0.00 | 0.00 | 0.00 | 85 | 1014.7 |
| 20260901090540 | 16 | 204 | 0.0 | 1.6 | 0.00 | 0.00 | 0.00 | 85 | 1014.7 |
| 20260901090025 | 16 | 154 | 0.0 | 1.6 | 0.00 | 0.00 | 0.00 | 85 | 1014.6 |
| 20260901085520 | 16 | 325 | 0.0 | 0.0 | 0.00 | 0.00 | 0.00 | 85 | 1014.6 |
| 20260901085017 | 16 | 162 | 0.0 | 1.6 | 0.00 | 0.00 | 0.00 | 85 | 1014.6 |
| 20260901084517 | 16 | 186 | 0.0 | 0.0 | 0.00 | 0.00 | 0.00 | 85 | 1014.5 |
| 20260901084017 | 16 | 150 | 0.0 | 1.6 | 0.00 | 0.00 | 0.00 | 85 | 1014.6 |
| 20260901083519 | 16 | 7 | 0.0 | 0.0 | 0.00 | 0.00 | 0.00 | 85 | 1014.7 |
| 20260901083019 | 16 | 152 | 0.0 | 1.6 | 0.00 | 0.00 | 0.00 | 85 | 1014.7 |
| 20260901082518 | 16 | 181 | 0.0 | 1.6 | 0.00 | 0.00 | 0.00 | 85 | 1014.7 |
| 20260901082038 | 16 | 176 | 0.0 | 1.6 | 0.00 | 0.00 | 0.00 | 85 | 1014.7 |
| 20260901081518 | 16 | 0.0 | 0.0 | 0.00 | 0.00 | 0.00 | 85 | 1014.6 | |
| 20260901081038 | 16 | 0.0 | 0.0 | 0.00 | 0.00 | 0.00 | 85 | 1014.6 | |
| 20260901080538 | 16 | 0.0 | 0.0 | 0.00 | 0.00 | 0.00 | 85 | 1014.6 | |
| 20260901080023 | 16 | 151 | 0.0 | 1.6 | 0.00 | 0.00 | 0.00 | 85 | 1014.7 |
| 20260901075518 | 16 | 270 | 0.0 | 1.6 | 0.00 | 0.00 | 0.00 | 85 | 1014.6 |
| 20260901075038 | 16 | 197 | 0.0 | 1.6 | 0.00 | 0.00 | 0.00 | 85 | 1014.7 |
| 20260901074520 | 16 | 0.0 | 0.0 | 0.00 | 0.00 | 0.00 | 85 | 1014.7 | |
| 20260901074019 | 16 | 309 | 0.0 | 1.6 | 0.00 | 0.00 | 0.00 | 85 | 1014.8 |
| 20260901073600 | 16 | 193 | 0.0 | 1.6 | 0.00 | 0.00 | 0.00 | 85 | 1014.8 |
| 20260901073018 | 16 | 161 | 0.0 | 1.6 | 0.00 | 0.00 | 0.00 | 85 | 1014.8 |
| 20260901072519 | 16 | 215 | 0.0 | 1.6 | 0.00 | 0.00 | 0.00 | 85 | 1014.8 |
| 20260901072021 | 16 | 140 | 0.0 | 1.6 | 0.00 | 0.00 | 0.00 | 85 | 1014.7 |
| 20260901071518 | 16 | 0.0 | 0.0 | 0.00 | 0.00 | 0.00 | 85 | 1014.7 | |
| 20260901071017 | 16 | 0.0 | 0.0 | 0.00 | 0.00 | 0.00 | 84 | 1014.7 | |
| 20260901070520 | 16 | 134 | 0.0 | 0.0 | 0.00 | 0.00 | 0.00 | 84 | 1014.8 |
| 20260901070019 | 16 | 0.0 | 0.0 | 0.00 | 0.00 | 0.00 | 84 | 1014.7 | |
| 20260901065519 | 16 | 0.0 | 0.0 | 0.00 | 0.00 | 0.00 | 84 | 1014.7 | |
| 20260901065020 | 16 | 0.0 | 0.0 | 0.00 | 0.00 | 0.00 | 84 | 1014.7 | |
| 20260901064517 | 16 | 105 | 0.0 | 0.0 | 0.00 | 0.00 | 0.00 | 84 | 1014.7 |
| 20260901064017 | 16 | 139 | 0.0 | 1.6 | 0.00 | 0.00 | 0.00 | 84 | 1014.8 |
| 20260901063517 | 16 | 0.0 | 0.0 | 0.00 | 0.00 | 0.00 | 84 | 1014.8 | |
| 20260901063017 | 16 | 0.0 | 0.0 | 0.00 | 0.00 | 0.00 | 84 | 1014.7 | |
| 20260901062517 | 16 | 0.0 | 0.0 | 0.00 | 0.00 | 0.00 | 84 | 1014.7 | |
| 20260901062017 | 16 | 143 | 0.0 | 0.0 | 0.00 | 0.00 | 0.00 | 84 | 1014.6 |
| 20260901061541 | 16 | 180 | 0.0 | 0.0 | 0.00 | 0.00 | 0.00 | 84 | 1014.7 |
| 20260901061020 | 16 | 0.0 | 0.0 | 0.00 | 0.00 | 0.00 | 84 | 1014.6 | |
| 20260901060517 | 16 | 0.0 | 0.0 | 0.00 | 0.00 | 0.00 | 84 | 1014.6 | |
| 20260901060018 | 16 | 170 | 1.6 | 1.6 | 0.00 | 0.00 | 0.00 | 84 | 1014.6 |
| 20260901055518 | 16 | 140 | 0.0 | 1.6 | 0.00 | 0.00 | 0.00 | 84 | 1014.5 |
| 20260901055018 | 16 | 192 | 0.0 | 0.0 | 0.00 | 0.00 | 0.00 | 84 | 1014.6 |
| 20260901054538 | 16 | 134 | 0.0 | 1.6 | 0.00 | 0.00 | 0.00 | 85 | 1014.6 |
| 20260901054018 | 16 | 0.0 | 0.0 | 0.00 | 0.00 | 0.00 | 85 | 1014.6 | |
| 20260901053523 | 16 | 57 | 0.0 | 1.6 | 0.00 | 0.00 | 0.00 | 85 | 1014.7 |
| 20260901053018 | 16 | 242 | 0.0 | 1.6 | 0.00 | 0.00 | 0.00 | 85 | 1014.7 |
| 20260901052518 | 16 | 154 | 0.0 | 3.2 | 0.00 | 0.00 | 0.00 | 85 | 1014.7 |
| 20260901052020 | 15 | 193 | 0.0 | 1.6 | 0.00 | 0.00 | 0.00 | 86 | 1014.7 |
| 20260901051518 | 15 | 165 | 0.0 | 1.6 | 0.00 | 0.00 | 0.00 | 86 | 1014.7 |
| 20260901051019 | 15 | 1 | 0.0 | 1.6 | 0.00 | 0.00 | 0.00 | 86 | 1014.6 |
| 20260901050519 | 15 | 114 | 0.0 | 1.6 | 0.00 | 0.00 | 0.00 | 86 | 1014.6 |
| 20260901050019 | 15 | 149 | 0.0 | 1.6 | 0.00 | 0.00 | 0.00 | 86 | 1014.4 |
| 20260901045559 | 15 | 172 | 0.0 | 1.6 | 0.00 | 0.00 | 0.00 | 85 | 1014.4 |
| 20260901045019 | 15 | 152 | 0.0 | 1.6 | 0.00 | 0.00 | 0.00 | 85 | 1014.2 |
| 20260901044519 | 16 | 204 | 0.0 | 1.6 | 0.00 | 0.00 | 0.00 | 85 | 1014.2 |
| 20260901044021 | 16 | 157 | 0.0 | 1.6 | 0.00 | 0.00 | 0.00 | 85 | 1014.2 |
| 20260901043516 | 16 | 209 | 0.0 | 1.6 | 0.00 | 0.00 | 0.00 | 85 | 1014.1 |
| 20260901043038 | 16 | 138 | 0.0 | 1.6 | 0.00 | 0.00 | 0.00 | 85 | 1014.2 |
| 20260901042516 | 16 | 156 | 0.0 | 1.6 | 0.00 | 0.00 | 0.00 | 85 | 1014.0 |
| 20260901042037 | 16 | 0.0 | 0.0 | 0.00 | 0.00 | 0.00 | 85 | 1013.9 | |
| 20260901041520 | 15 | 164 | 0.0 | 3.2 | 0.00 | 0.00 | 0.00 | 85 | 1013.8 |
| 20260901041019 | 15 | 0.0 | 0.0 | 0.00 | 0.00 | 0.00 | 85 | 1013.8 | |
| 20260901040540 | 15 | 271 | 0.0 | 1.6 | 0.00 | 0.00 | 0.00 | 85 | 1013.9 |
| 20260901040041 | 15 | 229 | 0.0 | 1.6 | 0.00 | 0.00 | 0.00 | 85 | 1013.9 |
| 20260901035517 | 15 | 140 | 1.6 | 3.2 | 0.00 | 0.00 | 0.00 | 85 | 1013.8 |
| 20260901034917 | 15 | 191 | 0.0 | 1.6 | 0.00 | 0.00 | 0.00 | 85 | 1013.6 |
| 20260901034417 | 15 | 169 | 0.0 | 1.6 | 0.00 | 0.00 | 0.00 | 85 | 1013.7 |
| 20260901033917 | 16 | 220 | 0.0 | 1.6 | 0.00 | 0.00 | 0.00 | 85 | 1013.5 |
| 20260901033438 | 16 | 129 | 0.0 | 1.6 | 0.00 | 0.00 | 0.00 | 85 | 1013.4 |
| 20260901032917 | 16 | 305 | 0.0 | 0.0 | 0.00 | 0.00 | 0.00 | 85 | 1013.3 |
| 20260901032417 | 16 | 0.0 | 0.0 | 0.00 | 0.00 | 0.00 | 84 | 1013.4 | |
| 20260901031918 | 16 | 202 | 0.0 | 1.6 | 0.00 | 0.00 | 0.00 | 84 | 1013.3 |
| 20260901031418 | 16 | 166 | 0.0 | 1.6 | 0.00 | 0.00 | 0.00 | 84 | 1013.3 |
| 20260901030917 | 16 | 111 | 0.0 | 0.0 | 0.00 | 0.00 | 0.00 | 84 | 1013.3 |
| 20260901030418 | 16 | 236 | 0.0 | 3.2 | 0.00 | 0.00 | 0.00 | 83 | 1013.3 |
| 20260901025918 | 16 | 169 | 0.0 | 1.6 | 0.00 | 0.00 | 0.00 | 83 | 1013.1 |
| 20260901025418 | 16 | 126 | 0.0 | 1.6 | 0.00 | 0.00 | 0.00 | 82 | 1013.2 |
| 20260901024938 | 17 | 0.0 | 0.0 | 0.00 | 0.00 | 0.00 | 82 | 1013.1 | |
| 20260901024423 | 17 | 0.0 | 0.0 | 0.00 | 0.00 | 0.00 | 81 | 1013.2 | |
| 20260901023918 | 17 | 147 | 0.0 | 1.6 | 0.00 | 0.00 | 0.00 | 80 | 1013.2 |
| 20260901023418 | 17 | 0.0 | 0.0 | 0.00 | 0.00 | 0.00 | 79 | 1013.2 | |
| 20260901022918 | 17 | 128 | 0.0 | 1.6 | 0.00 | 0.00 | 0.00 | 78 | 1013.2 |
| 20260901022436 | 18 | 169 | 0.0 | 1.6 | 0.00 | 0.00 | 0.00 | 77 | 1013.1 |
| 20260901021919 | 18 | 137 | 0.0 | 3.2 | 0.00 | 0.00 | 0.00 | 76 | 1013.2 |
| 20260901021418 | 18 | 171 | 0.0 | 1.6 | 0.00 | 0.00 | 0.00 | 75 | 1013.2 |
| 20260901020918 | 18 | 0.0 | 0.0 | 0.00 | 0.00 | 0.00 | 75 | 1013.3 | |
| 20260901020500 | 18 | 0.0 | 0.0 | 0.00 | 0.00 | 0.00 | 75 | 1013.2 | |
| 20260901015941 | 19 | 265 | 0.0 | 1.6 | 0.00 | 0.00 | 0.00 | 75 | 1013.2 |
| 20260901015419 | 19 | 0.0 | 0.0 | 0.00 | 0.00 | 0.00 | 75 | 1013.2 | |
| 20260901014939 | 19 | 0.0 | 0.0 | 0.00 | 0.00 | 0.00 | 75 | 1013.2 | |
| 20260901014416 | 19 | 272 | 0.0 | 1.6 | 0.00 | 0.00 | 0.00 | 74 | 1013.1 |
| 20260901013916 | 19 | 304 | 0.0 | 1.6 | 0.00 | 0.00 | 0.00 | 75 | 1013.2 |
| 20260901013416 | 19 | 291 | 0.0 | 4.8 | 0.00 | 0.00 | 0.00 | 73 | 1013.2 |
| 20260901012937 | 19 | 291 | 1.6 | 4.8 | 0.00 | 0.00 | 0.00 | 75 | 1013.2 |
| 20260901012416 | 18 | 264 | 0.0 | 1.6 | 0.00 | 0.00 | 0.00 | 76 | 1013.2 |
| 20260901011919 | 18 | 218 | 0.0 | 3.2 | 0.00 | 0.00 | 0.00 | 76 | 1013.3 |
| 20260901011420 | 18 | 237 | 0.0 | 1.6 | 0.00 | 0.00 | 0.00 | 76 | 1013.2 |
| 20260901010920 | 18 | 229 | 1.6 | 3.2 | 0.00 | 0.00 | 0.00 | 76 | 1013.3 |
| 20260901010420 | 18 | 199 | 1.6 | 6.4 | 0.00 | 0.00 | 0.00 | 77 | 1013.4 |
| 20260901005917 | 18 | 291 | 1.6 | 4.8 | 0.00 | 0.00 | 0.00 | 76 | 1013.4 |
| 20260901005417 | 19 | 295 | 1.6 | 4.8 | 0.00 | 0.00 | 0.00 | 75 | 1013.5 |
| 20260901004917 | 20 | 281 | 1.6 | 4.8 | 0.00 | 0.00 | 0.00 | 74 | 1013.4 |
| 20260901004438 | 20 | 234 | 1.6 | 4.8 | 0.00 | 0.00 | 0.00 | 72 | 1013.6 |
| 20260901003917 | 21 | 273 | 1.6 | 3.2 | 0.00 | 0.00 | 0.00 | 69 | 1013.4 |
| 20260901003417 | 21 | 270 | 0.0 | 1.6 | 0.00 | 0.00 | 0.00 | 69 | 1013.4 |
| 20260901002918 | 20 | 226 | 0.0 | 1.6 | 0.00 | 0.00 | 0.00 | 69 | 1013.5 |
| 20260901002438 | 20 | 271 | 1.6 | 3.2 | 0.00 | 0.00 | 0.00 | 69 | 1013.5 |
| 20260901001943 | 20 | 258 | 1.6 | 3.2 | 0.00 | 0.00 | 0.00 | 68 | 1013.4 |
| 20260901001418 | 20 | 244 | 1.6 | 3.2 | 0.00 | 0.00 | 0.00 | 70 | 1013.3 |
| 20260901000918 | 20 | 268 | 1.6 | 4.8 | 0.00 | 0.00 | 0.00 | 70 | 1013.4 |
| 20260901000443 | 19 | 187 | 1.6 | 4.8 | 0.00 | 0.00 | 0.00 | 71 | 1013.3 |
| 20260831235918 | 19 | 251 | 1.6 | 4.8 | 0.00 | 0.00 | 0.00 | 72 | 1013.4 |
| 20260831235418 | 19 | 254 | 3.2 | 6.4 | 0.00 | 0.00 | 0.00 | 72 | 1013.4 |
| 20260831234918 | 19 | 269 | 1.6 | 8.0 | 0.00 | 0.00 | 0.00 | 73 | 1013.4 |
| 20260831234423 | 19 | 295 | 1.6 | 4.8 | 0.00 | 0.00 | 0.00 | 74 | 1013.5 |
| 20260831233919 | 19 | 232 | 1.6 | 3.2 | 0.00 | 0.00 | 0.00 | 73 | 1013.6 |
| 20260831233441 | -17 | 216 | 1.6 | 4.8 | 0.00 | 0.00 | 0.00 | ||
| 20260831232918 | 20 | 276 | 1.6 | 3.2 | 0.00 | 0.00 | 0.00 | 72 | 1013.6 |
| 20260831232420 | 20 | 267 | 1.6 | 1.6 | 0.00 | 0.00 | 0.00 | 73 | 1013.6 |
| 20260831231939 | 20 | 255 | 1.6 | 4.8 | 0.00 | 0.00 | 0.00 | 69 | 1013.6 |
| 20260831231421 | 20 | 257 | 0.0 | 3.2 | 0.00 | 0.00 | 0.00 | 70 | 1013.7 |
| 20260831230939 | 20 | 251 | 1.6 | 4.8 | 0.00 | 0.00 | 0.00 | 69 | 1013.7 |
| 20260831230417 | 20 | 278 | 1.6 | 4.8 | 0.00 | 0.00 | 0.00 | 71 | 1013.8 |
| 20260831225916 | 20 | 215 | 1.6 | 1.6 | 0.00 | 0.00 | 0.00 | 70 | 1013.8 |
| 20260831225416 | 20 | 255 | 1.6 | 4.8 | 0.00 | 0.00 | 0.00 | 72 | 1013.9 |
| 20260831224916 | 20 | 254 | 1.6 | 6.4 | 0.00 | 0.00 | 0.00 | 74 | 1013.9 |
| 20260831224416 | -17 | 253 | 1.6 | 6.4 | 0.00 | 0.00 | 0.00 | ||
| 20260831223920 | 20 | 295 | 0.0 | 3.2 | 0.00 | 0.00 | 0.00 | 73 | 1013.9 |
| 20260831223420 | 20 | 245 | 1.6 | 4.8 | 0.00 | 0.00 | 0.00 | 72 | 1013.9 |
| 20260831222917 | 19 | 317 | 0.0 | 3.2 | 0.00 | 0.00 | 0.00 | 75 | 1014.0 |
| 20260831222422 | 19 | 249 | 1.6 | 4.8 | 0.00 | 0.00 | 0.00 | 72 | 1014.0 |
| 20260831221917 | 19 | 278 | 1.6 | 3.2 | 0.00 | 0.00 | 0.00 | 74 | 1014.1 |
| 20260831221417 | 18 | 274 | 0.0 | 3.2 | 0.00 | 0.00 | 0.00 | 75 | 1014.2 |
| 20260831220917 | 19 | 265 | 0.0 | 3.2 | 0.00 | 0.00 | 0.00 | 74 | 1014.3 |
| 20260831220417 | 18 | 262 | 1.6 | 4.8 | 0.00 | 0.00 | 0.00 | 73 | 1014.4 |
| 20260831215917 | 18 | 272 | 1.6 | 4.8 | 0.00 | 0.00 | 0.00 | 76 | 1014.4 |
| 20260831215422 | -17 | 277 | 3.2 | 8.0 | 0.00 | 0.00 | 0.00 | ||
| 20260831214918 | 18 | 268 | 1.6 | 6.4 | 0.00 | 0.00 | 0.00 | 77 | 1014.5 |
| 20260831214417 | 18 | 279 | 3.2 | 4.8 | 0.00 | 0.00 | 0.00 | 74 | 1014.6 |
| 20260831213918 | 18 | 207 | 0.0 | 3.2 | 0.00 | 0.00 | 0.00 | 76 | 1014.5 |
| 20260831213418 | 18 | 265 | 3.2 | 4.8 | 0.00 | 0.00 | 0.00 | 77 | 1014.7 |
| 20260831212918 | 18 | 232 | 1.6 | 3.2 | 0.00 | 0.00 | 0.00 | 75 | 1014.7 |
| 20260831212423 | 18 | 275 | 0.0 | 3.2 | 0.00 | 0.00 | 0.00 | 75 | 1014.7 |
| 20260831211939 | 18 | 262 | 1.6 | 4.8 | 0.00 | 0.00 | 0.00 | 75 | 1014.7 |
| 20260831211418 | 19 | 215 | 0.0 | 1.6 | 0.00 | 0.00 | 0.00 | 73 | 1014.8 |
| 20260831210918 | 20 | 289 | 1.6 | 4.8 | 0.00 | 0.00 | 0.00 | 71 | 1014.8 |
| 20260831210423 | 20 | 278 | 1.6 | 3.2 | 0.00 | 0.00 | 0.00 | 71 | 1014.8 |
| 20260831205918 | 20 | 240 | 1.6 | 3.2 | 0.00 | 0.00 | 0.00 | 69 | 1014.8 |
| 20260831205418 | 19 | 255 | 1.6 | 4.8 | 0.00 | 0.00 | 0.00 | 71 | 1014.8 |
| 20260831204919 | 19 | 265 | 1.6 | 3.2 | 0.00 | 0.00 | 0.00 | 71 | 1014.9 |
| 20260831204419 | 18 | 295 | 0.0 | 1.6 | 0.00 | 0.00 | 0.00 | 72 | 1014.9 |
| 20260831203921 | 18 | 266 | 0.0 | 1.6 | 0.00 | 0.00 | 0.00 | 73 | 1014.9 |
| 20260831203420 | 18 | 293 | 0.0 | 3.2 | 0.00 | 0.00 | 0.00 | 72 | 1015.0 |
| 20260831202919 | 18 | 253 | 0.0 | 3.2 | 0.00 | 0.00 | 0.00 | 74 | 1014.9 |
| 20260831202419 | 18 | 251 | 1.6 | 4.8 | 0.00 | 0.00 | 0.00 | 72 | 1015.0 |
| 20260831201919 | 17 | 227 | 0.0 | 3.2 | 0.00 | 0.00 | 0.00 | 77 | 1015.0 |
| 20260831201416 | 17 | 273 | 1.6 | 4.8 | 0.00 | 0.00 | 0.00 | 75 | 1015.0 |
| 20260831200937 | 18 | 275 | 1.6 | 4.8 | 0.00 | 0.00 | 0.00 | 76 | 1015.0 |
| 20260831200418 | 18 | 258 | 1.6 | 4.8 | 0.00 | 0.00 | 0.00 | 75 | 1014.9 |
| 20260831195917 | 18 | 267 | 1.6 | 4.8 | 0.00 | 0.00 | 0.00 | 73 | 1014.9 |
| 20260831195436 | 18 | 267 | 0.0 | 1.6 | 0.00 | 0.00 | 0.00 | 77 | 1014.9 |
| 20260831194921 | 18 | 272 | 1.6 | 4.8 | 0.00 | 0.00 | 0.00 | 74 | 1015.0 |
| 20260831194419 | 19 | 187 | 0.0 | 3.2 | 0.00 | 0.00 | 0.00 | 72 | 1015.0 |
| 20260831193920 | 18 | 185 | 0.0 | 1.6 | 0.00 | 0.00 | 0.00 | 72 | 1015.1 |
| 20260831193417 | 18 | 262 | 1.6 | 4.8 | 0.00 | 0.00 | 0.00 | 72 | 1015.1 |
| 20260831192917 | 18 | 222 | 0.0 | 1.6 | 0.00 | 0.00 | 0.00 | 74 | 1015.2 |
| 20260831192417 | 18 | 231 | 1.6 | 3.2 | 0.00 | 0.00 | 0.00 | 75 | 1015.3 |
| 20260831191917 | 17 | 230 | 1.6 | 3.2 | 0.00 | 0.00 | 0.00 | 74 | 1015.3 |
| 20260831191417 | 17 | 271 | 0.0 | 3.2 | 0.00 | 0.00 | 0.00 | 77 | 1015.3 |
| 20260831190917 | 17 | 252 | 1.6 | 3.2 | 0.00 | 0.00 | 0.00 | 76 | 1015.3 |
| 20260831190417 | 17 | 264 | 1.6 | 4.8 | 0.00 | 0.00 | 0.00 | 76 | 1015.3 |
| 20260831185917 | 18 | 265 | 3.2 | 6.4 | 0.00 | 0.00 | 0.00 | 73 | 1015.3 |
| 20260831185423 | 18 | 230 | 0.0 | 3.2 | 0.00 | 0.00 | 0.00 | 72 | 1015.3 |
| 20260831184917 | 18 | 228 | 0.0 | 1.6 | 0.00 | 0.00 | 0.00 | 71 | 1015.2 |
| 20260831184417 | 17 | 212 | 1.6 | 3.2 | 0.00 | 0.00 | 0.00 | 72 | 1015.2 |
| 20260831183918 | 17 | 256 | 0.0 | 1.6 | 0.00 | 0.00 | 0.00 | 72 | 1015.2 |
| 20260831183418 | 17 | 311 | 0.0 | 1.6 | 0.00 | 0.00 | 0.00 | 77 | 1015.3 |
| 20260831182920 | 16 | 239 | 1.6 | 1.6 | 0.00 | 0.00 | 0.00 | 77 | 1015.3 |
| 20260831182418 | 16 | 240 | 1.6 | 3.2 | 0.00 | 0.00 | 0.00 | 75 | 1015.3 |
| 20260831181938 | 16 | 207 | 0.0 | 3.2 | 0.00 | 0.00 | 0.00 | 77 | 1015.4 |
| 20260831181419 | 16 | 237 | 1.6 | 1.6 | 0.00 | 0.00 | 0.00 | 77 | 1015.4 |
| 20260831180924 | 16 | 218 | 0.0 | 0.0 | 0.00 | 0.00 | 0.00 | 76 | 1015.4 |
| 20260831180424 | 16 | 307 | 1.6 | 1.6 | 0.00 | 0.00 | 0.00 | 76 | 1015.4 |
| 20260831175924 | 16 | 181 | 0.0 | 0.0 | 0.00 | 0.00 | 0.00 | 76 | 1015.4 |
| 20260831175426 | 16 | 291 | 0.0 | 1.6 | 0.00 | 0.00 | 0.00 | 77 | 1015.4 |
| 20260831174924 | 16 | 220 | 0.0 | 1.6 | 0.00 | 0.00 | 0.00 | 78 | 1015.3 |
| 20260831174425 | 16 | 238 | 0.0 | 1.6 | 0.00 | 0.00 | 0.00 | 78 | 1015.4 |
| 20260831173924 | 16 | 285 | 0.0 | 1.6 | 0.00 | 0.00 | 0.00 | 77 | 1015.3 |
| 20260831173426 | 16 | 298 | 0.0 | 1.6 | 0.00 | 0.00 | 0.00 | 78 | 1015.3 |
| 20260831172924 | 16 | 198 | 1.6 | 1.6 | 0.00 | 0.00 | 0.00 | 76 | 1015.3 |
| 20260831172425 | 16 | 287 | 0.0 | 1.6 | 0.00 | 0.00 | 0.00 | 76 | 1015.2 |
| 20260831171945 | 16 | 0.0 | 0.0 | 0.00 | 0.00 | 0.00 | 75 | 1015.2 | |
| 20260831171447 | 16 | 326 | 0.0 | 1.6 | 0.00 | 0.00 | 0.00 | 74 | 1015.2 |
| 20260831170926 | 16 | 293 | 0.0 | 1.6 | 0.00 | 0.00 | 0.00 | 75 | 1015.1 |
| 20260831170425 | 16 | 111 | 0.0 | 0.0 | 0.00 | 0.00 | 0.00 | 76 | 1015.1 |
| 20260831165925 | 16 | 246 | 1.6 | 1.6 | 0.00 | 0.00 | 0.00 | 76 | 1015.0 |
| 20260831165426 | 16 | 342 | 0.0 | 0.0 | 0.00 | 0.00 | 0.00 | 76 | 1015.0 |
| 20260831164927 | 16 | 10 | 0.0 | 0.0 | 0.00 | 0.00 | 0.00 | 77 | 1015.0 |
| 20260831164427 | 16 | 0.0 | 0.0 | 0.00 | 0.00 | 0.00 | 78 | 1015.0 | |
| 20260831163926 | 16 | 0.0 | 0.0 | 0.00 | 0.00 | 0.00 | 79 | 1015.0 | |
| 20260831163427 | -17 | 0.0 | 0.0 | 0.00 | 0.00 | 0.00 | |||
| 20260831162806 | 15 | 222 | 0.0 | 1.6 | 0.00 | 0.00 | 0.00 | 81 | 1014.9 |
| 20260831162226 | 15 | 0.0 | 0.0 | 0.00 | 0.00 | 0.00 | 81 | 1014.9 | |
| 20260831161726 | 15 | 235 | 0.0 | 0.0 | 0.00 | 0.00 | 0.00 | 81 | 1014.9 |
| 20260831161218 | 15 | 171 | 1.6 | 1.6 | 0.00 | 0.00 | 0.00 | 82 | 1014.9 |
| 20260831160718 | 15 | 153 | 0.0 | 1.6 | 0.00 | 0.00 | 0.00 | 84 | 1014.9 |
| 20260831160238 | 15 | 201 | 1.6 | 1.6 | 0.00 | 0.00 | 0.00 | 84 | 1014.9 |
| 20260831155718 | 15 | 155 | 1.6 | 1.6 | 0.00 | 0.00 | 0.00 | 85 | 1014.8 |
| 20260831155218 | 15 | 279 | 0.0 | 1.6 | 0.00 | 0.00 | 0.00 | 85 | 1014.9 |
| 20260831154718 | 14 | 311 | 0.0 | 0.0 | 0.00 | 0.00 | 0.00 | 87 | 1014.8 |
| 20260831154219 | 14 | 146 | 1.6 | 3.2 | 0.00 | 0.00 | 0.00 | 87 | 1014.7 |
| 20260831153738 | 14 | 147 | 1.6 | 3.2 | 0.00 | 0.00 | 0.00 | 87 | 1014.8 |
| 20260831153218 | 14 | 167 | 1.6 | 3.2 | 0.00 | 0.00 | 0.00 | 88 | 1014.8 |
| 20260831152718 | 13 | 157 | 1.6 | 3.2 | 0.00 | 0.00 | 0.00 | 88 | 1014.7 |
| 20260831152219 | 14 | 351 | 0.0 | 1.6 | 0.00 | 0.00 | 0.00 | 89 | 1014.6 |
| 20260831151723 | 13 | 162 | 0.0 | 1.6 | 0.00 | 0.00 | 0.00 | 89 | 1014.6 |
| 20260831151218 | 13 | 145 | 1.6 | 1.6 | 0.00 | 0.00 | 0.00 | 89 | 1014.6 |
| 20260831150718 | 13 | 142 | 1.6 | 3.2 | 0.00 | 0.00 | 0.00 | 90 | 1014.6 |
| 20260831150219 | 13 | 132 | 0.0 | 1.6 | 0.00 | 0.00 | 0.00 | 90 | 1014.6 |
| 20260831145719 | 13 | 138 | 1.6 | 1.6 | 0.00 | 0.00 | 0.00 | 91 | 1014.5 |
| 20260831145239 | 13 | 140 | 1.6 | 1.6 | 0.00 | 0.00 | 0.00 | 91 | 1014.4 |
| 20260831144719 | 13 | 113 | 0.0 | 1.6 | 0.00 | 0.00 | 0.00 | 92 | 1014.3 |
| 20260831144219 | 13 | 145 | 1.6 | 1.6 | 0.00 | 0.00 | 0.00 | 92 | 1014.3 |
| 20260831143716 | 13 | 138 | 1.6 | 1.6 | 0.00 | 0.00 | 0.00 | 92 | 1014.2 |
| 20260831143216 | 13 | 130 | 1.6 | 1.6 | 0.00 | 0.00 | 0.00 | 92 | 1014.2 |